Tracking 19176 objects as of 28-May-2018
HD Live streaming from Space Station
objects crossing your sky now

DASH/VEP 3

Track DASH/VEP 3 now!
DASH/VEP 3 is classified as:


NORAD ID: 27368
Int'l Code: 2002-003B
Perigee: 410.8 km
Apogee: 34,920.8 km
Inclination: 28.6 °
Period: 618.1 minutes
Semi major axis: 24036 km
RCS: 13.4031 m2 (large)
Launch date: February 4, 2002
Source: Japan (JPN)
Launch site: TANEGASHIMA SPACE CENTER (TNSTA)
aabbcc
Your satellite tracking list
Your tracking list is empty




NASA's NSSDC Master Catalog

Two Line Element Set (TLE):
1 27368U 02003B   18147.37849776 -.00000036  00000-0  39945-3 0  9996
2 27368  28.5895 244.8146 7178578  10.8432 358.6868  2.32964003137076
Source of the keplerian elements: AFSPC